{"data":{"norad_id":53932,"intl_designator":"2022-119AY","name":"STARLINK-4772","alt_names":[],"object_type":"PAYLOAD","status":"ACTIVE","operator":null,"country":"US","launch_date":"2022-09-24","launch_site_code":"AFETR","launch_vehicle":null,"mission":null,"orbit_class":"UNKNOWN","rcs_meters":null,"size_class":null,"mass_kg":null,"dimensions":null,"purposes":["comms"],"wikipedia_slug":null,"has_3d_model":false,"image_url":null,"decayed_at":null,"tle_current":{"epoch":"2026-09-20T23:06:28.610496Z","epoch_age_seconds":46685,"freshness":"FRESH","line1":"1 53932U 22119AY  26263.96283114 -.00000560  00000+0 -17099-4 0  9992","line2":"2 53932  53.1605 141.9295 0001772  88.2947 271.8247 15.08831182221520","mean_motion":15.08831182,"eccentricity":0.0001772,"inclination_deg":53.1605,"raan_deg":141.9295,"arg_perigee_deg":88.2947,"mean_anomaly_deg":271.8247,"bstar":-1.7099e-5,"rev_number":22152,"period_min":95.43811243954,"perigee_km":538.54448901264,"apogee_km":540.99619537471,"semimajor_km":6917.9073421937,"source":"CELESTRAK","updated_at":"2026-09-21T09:00:33.037640Z"}}}